Change the Weather History Date:

Thursday, February 27, 2014

  Actual Average (KRDD) Record (KRDD)
Temperature  
Mean Temperature 46 °F -  
Max Temperature 51 °F 62 °F 77 °F (2002)
Min Temperature 41 °F 41 °F 28 °F (2011)
Degree Days  
Heating Degree Days 19    
Cooling Degree Days 0    
Moisture  
Dew Point 43 °F    
Average Humidity 91    
Maximum Humidity 100    
Minimum Humidity 76    
Precipitation  
Precipitation 0.26 in 0.19 in 2.53 in (2006)
Month to date precipitation 5.33  
Year to date precipitation 11.29  
Sea Level Pressure  
Sea Level Pressure 29.72 in    
Wind  
Wind Speed 1 mph (NNE)    
Max Wind Speed 7 mph    
Max Gust Speed -    
Visibility 8 miles    
Events      
T = Trace of Precipitation, MM = Missing Value Source: NWS Daily Summary

Daily Weather History Graph

Daily Weather History Graph

Search for Another Location

Airport or City:

Trip Planner

Search our weather history database for the weather conditions in past years. The results will help you decide how hot, cold, wet, or windy it might be!

Date:

Astronomy

Feb. 27, 2014 Rise Set
Actual Time 6:48 AM PST 6:00 PM PST
Civil Twilight 6:20 AM PST 6:28 PM PST
Nautical Twilight 5:49 AM PST 7:00 PM PST
Astronomical Twilight 5:17 AM PST 7:31 PM PST
Moon 5:25 AM PST (2/27) 4:32 PM PST (2/27)
Length of Visible Light 12h 07m
Length of Day
11h 12m
Waning Crescent, 3% of the Moon is Illuminated
Feb 27
Waning Crescent
Mar 1
New
Mar 8
First Quarter
Mar 16
Full
Mar 23
Last Quarter

Hourly Weather History & Observations

Time (PST) Temp. Windchill Dew Point Humidity Pressure Visibility Wind Dir Wind Speed Gust Speed Precip Events Conditions
12:15 AM 44.6 °F - 41.0 °F 87% 29.65 in 10.0 mi Calm Calm - N/A   Overcast
12:35 AM 42.8 °F - 41.0 °F 93% 29.65 in 3.0 mi Calm Calm - N/A   Overcast
12:55 AM 42.8 °F - 41.0 °F 93% 29.65 in 10.0 mi Calm Calm - N/A   Mostly Cloudy
1:15 AM 41.0 °F 38.0 °F 41.0 °F 100% 29.65 in 10.0 mi NNW 4.6 mph - N/A   Overcast
1:35 AM 41.0 °F - 41.0 °F 100% 29.66 in 4.0 mi Calm Calm - N/A   Overcast
1:55 AM 41.0 °F 39.0 °F 41.0 °F 100% 29.67 in 10.0 mi NNE 3.5 mph - N/A   Overcast
2:15 AM 41.0 °F - 41.0 °F 100% 29.67 in 10.0 mi Calm Calm - N/A   Overcast
2:35 AM 41.0 °F 38.0 °F 39.2 °F 93% 29.67 in 10.0 mi NNE 4.6 mph - N/A   Overcast
2:55 AM 41.0 °F - 39.2 °F 93% 29.68 in 10.0 mi Calm Calm - N/A   Overcast
3:15 AM 41.0 °F - 39.2 °F 93% 29.68 in 10.0 mi Calm Calm - N/A   Overcast
3:35 AM 41.0 °F - 39.2 °F 93% 29.68 in 10.0 mi Calm Calm - N/A   Overcast
3:55 AM 41.0 °F - 39.2 °F 93% 29.69 in 5.0 mi Calm Calm - N/A   Overcast
4:15 AM 41.0 °F - 39.2 °F 93% 29.69 in 10.0 mi Calm Calm - N/A   Overcast
4:35 AM 41.0 °F - 39.2 °F 93% 29.69 in 9.0 mi Calm Calm - N/A   Overcast
4:55 AM 41.0 °F - 39.2 °F 93% 29.70 in 9.0 mi Calm Calm - N/A   Overcast
5:15 AM 41.0 °F - 39.2 °F 93% 29.70 in 9.0 mi Calm Calm - N/A   Mostly Cloudy
5:35 AM 41.0 °F - 39.2 °F 93% 29.70 in 10.0 mi Calm Calm - N/A   Overcast
5:55 AM 41.0 °F - 39.2 °F 93% 29.70 in 10.0 mi Calm Calm - N/A   Overcast
6:15 AM 41.0 °F - 39.2 °F 93% 29.70 in 4.0 mi Calm Calm - 0.01 in   Overcast
6:35 AM 41.0 °F - 39.2 °F 93% 29.70 in 6.0 mi Calm Calm - 0.02 in   Overcast
6:55 AM 41.0 °F - 39.2 °F 93% 29.70 in 5.0 mi Calm Calm - 0.03 in   Overcast
7:15 AM 41.0 °F - 39.2 °F 93% 29.71 in 2.5 mi Calm Calm - 0.03 in   Overcast
7:35 AM 41.0 °F - 41.0 °F 100% 29.72 in 3.0 mi Calm Calm - 0.07 in   Overcast
7:55 AM 41.0 °F - 41.0 °F 100% 29.72 in 1.0 mi Calm Calm - 0.13 in   Overcast
8:15 AM 41.0 °F - 41.0 °F 100% 29.73 in 4.0 mi Calm Calm - 0.01 in   Overcast
8:35 AM 41.0 °F - 41.0 °F 100% 29.74 in 3.0 mi Calm Calm - 0.03 in   Overcast
8:55 AM 42.8 °F - 41.0 °F 93% 29.74 in 3.0 mi Calm Calm - 0.04 in   Mostly Cloudy
9:15 AM 42.8 °F - 41.0 °F 93% 29.75 in 5.0 mi Calm Calm - 0.01 in   Mostly Cloudy
9:35 AM 44.6 °F - 41.0 °F 87% 29.75 in 9.0 mi Calm Calm - 0.01 in   Mostly Cloudy
9:55 AM 44.6 °F - 42.8 °F 93% 29.75 in 10.0 mi Calm Calm - 0.01 in   Overcast
10:15 AM 46.4 °F - 42.8 °F 87% 29.75 in 10.0 mi Calm Calm - N/A   Overcast
10:35 AM 46.4 °F - 42.8 °F 87% 29.75 in 4.0 mi Calm Calm - N/A   Overcast
10:55 AM 48.2 °F - 42.8 °F 82% 29.75 in 10.0 mi Calm Calm - N/A   Mostly Cloudy
11:15 AM 46.4 °F - 44.6 °F 93% 29.76 in 5.0 mi Calm Calm - 0.01 in   Mostly Cloudy
11:35 AM 48.2 °F - 44.6 °F 87% 29.76 in 10.0 mi WSW 3.5 mph - 0.01 in   Mostly Cloudy
11:55 AM 48.2 °F - 44.6 °F 87% 29.76 in 3.0 mi Calm Calm - 0.01 in   Scattered Clouds
12:15 PM 48.2 °F - 44.6 °F 87% 29.76 in 6.0 mi West 4.6 mph - 0.01 in   Partly Cloudy
12:35 PM 48.2 °F - 44.6 °F 87% 29.76 in 9.0 mi NW 3.5 mph - 0.01 in   Partly Cloudy
12:55 PM 48.2 °F - 44.6 °F 87% 29.76 in 7.0 mi Calm Calm - 0.01 in   Partly Cloudy
1:15 PM 48.2 °F - 44.6 °F 87% 29.77 in 3.0 mi NW 3.5 mph - N/A   Partly Cloudy
1:35 PM 48.2 °F - 44.6 °F 87% 29.77 in 3.0 mi Calm Calm - 0.02 in   Clear
1:55 PM 48.2 °F - 44.6 °F 87% 29.77 in 4.0 mi Calm Calm - 0.03 in   Clear
2:15 PM 48.2 °F - 46.4 °F 93% 29.77 in 5.0 mi Calm Calm - N/A   Scattered Clouds
2:35 PM 50.0 °F - 44.6 °F 82% 29.76 in 10.0 mi Calm Calm - N/A   Mostly Cloudy
2:55 PM 50.0 °F - 44.6 °F 82% 29.76 in 9.0 mi Calm Calm - N/A   Mostly Cloudy
3:15 PM 50.0 °F - 46.4 °F 87% 29.76 in 10.0 mi Calm Calm - N/A   Overcast
3:35 PM 50.0 °F - 46.4 °F 87% 29.76 in 10.0 mi Calm Calm - N/A   Mostly Cloudy
3:55 PM 50.0 °F - 44.6 °F 82% 29.75 in 10.0 mi Calm Calm - N/A   Overcast
4:15 PM 51.8 °F - 44.6 °F 76% 29.75 in 10.0 mi West 3.5 mph - N/A   Overcast
4:35 PM 51.8 °F - 44.6 °F 76% 29.75 in 10.0 mi WSW 3.5 mph - N/A   Scattered Clouds
4:55 PM 50.0 °F - 46.4 °F 87% 29.75 in 10.0 mi Calm Calm - N/A   Scattered Clouds
5:15 PM 50.0 °F - 46.4 °F 87% 29.75 in 10.0 mi Calm Calm - N/A   Mostly Cloudy
5:35 PM 48.2 °F - 46.4 °F 93% 29.75 in 10.0 mi Calm Calm - N/A   Mostly Cloudy
5:55 PM 48.2 °F - 46.4 °F 93% 29.75 in 10.0 mi NW 3.5 mph - N/A   Overcast
6:15 PM 46.4 °F 45.2 °F 46.4 °F 100% 29.75 in 10.0 mi NNE 3.5 mph - N/A   Overcast
6:35 PM 46.4 °F 44.3 °F 46.4 °F 100% 29.74 in 10.0 mi NNE 4.6 mph - N/A   Overcast
6:55 PM 46.4 °F 45.2 °F 44.6 °F 93% 29.74 in 7.0 mi NNE 3.5 mph - N/A   Mostly Cloudy
7:15 PM 46.4 °F 44.3 °F 44.6 °F 93% 29.73 in 10.0 mi NNE 4.6 mph - N/A   Overcast
7:35 PM 46.4 °F 44.3 °F 44.6 °F 93% 29.73 in 10.0 mi NNE 4.6 mph - N/A   Overcast
7:55 PM 46.4 °F - 44.6 °F 93% 29.73 in 7.0 mi Calm Calm - N/A   Overcast
8:15 PM 46.4 °F 44.3 °F 44.6 °F 93% 29.74 in 10.0 mi NE 4.6 mph - N/A   Overcast
8:35 PM 46.4 °F 45.2 °F 44.6 °F 93% 29.73 in 10.0 mi NE 3.5 mph - N/A   Overcast
8:55 PM 46.4 °F 45.2 °F 42.8 °F 87% 29.73 in 10.0 mi ENE 3.5 mph - N/A   Overcast
9:15 PM 46.4 °F - 42.8 °F 87% 29.72 in 10.0 mi Calm Calm - N/A   Overcast
9:35 PM 46.4 °F - 41.0 °F 81% 29.71 in 10.0 mi Calm Calm - N/A   Mostly Cloudy
9:55 PM 46.4 °F 45.2 °F 42.8 °F 87% 29.70 in 10.0 mi ENE 3.5 mph - N/A   Clear
10:15 PM 44.6 °F 41.4 °F 42.8 °F 93% 29.69 in 9.0 mi NE 5.8 mph - N/A   Clear
10:35 PM 44.6 °F 40.7 °F 41.0 °F 87% 29.68 in 10.0 mi NE 6.9 mph - N/A   Clear
10:55 PM 46.4 °F 43.5 °F 41.0 °F 81% 29.68 in 10.0 mi NE 5.8 mph - N/A   Clear
11:15 PM 44.6 °F 42.2 °F 41.0 °F 87% 29.68 in 10.0 mi NE 4.6 mph - N/A   Mostly Cloudy
11:35 PM 46.4 °F 45.2 °F 41.0 °F 81% 29.68 in 10.0 mi ENE 3.5 mph - N/A   Mostly Cloudy
11:55 PM 44.6 °F - 41.0 °F 87% 29.68 in 10.0 mi Calm Calm - N/A   Overcast